Location: Bothwell
(42.3833°S, 147.0000°E)
Time: 01:36:51
(UTC+10:00)

ISS - Visible Passes

Search period start: 05 October 2024 00:00
Search period end: 15 October 2024 01:00
Orbit: 415 x 425 km, 51.6° (Epoch: 04 October)

Date Brightness Start Highest point End Pass type
(mag) Time Alt. Az. Time Alt. Az. Time Alt. Az.
05 Oct -0.1 02:20:59 10° SE 02:20:59 10° SE 02:21:05 10° SE visible
05 Oct -2.0 03:54:02 16° SW 03:56:18 31° SSE 03:59:28 10° E visible
06 Oct -1.7 04:12:08 26° S 04:12:30 26° SSE 04:15:36 10° ESE visible
06 Oct -3.7 05:46:27 10° WSW 05:50:03 73° NW 05:53:36 10° NE visible
07 Oct -0.7 03:34:42 18° SE 03:34:42 18° SE 03:36:12 10° ESE visible
07 Oct -3.5 05:08:20 17° SW 05:11:06 83° SSE 05:14:46 10° ENE visible
08 Oct -3.2 04:35:06 47° SSW 04:35:59 67° SSE 04:39:42 10° ENE visible
09 Oct -2.2 04:05:27 39° E 04:05:27 39° E 04:08:02 10° ENE visible
09 Oct -2.2 05:39:36 13° W 05:42:04 22° NW 05:45:03 10° N visible
10 Oct -0.5 03:39:12 12° ENE 03:39:12 12° ENE 03:39:29 10° ENE visible
10 Oct -2.4 05:13:33 25° NW 05:13:43 25° NW 05:16:55 10° N visible
10 Oct -1.9 20:31:53 10° N 20:34:37 19° NE 20:34:38 19° NE visible
10 Oct -0.7 22:08:45 10° WNW 22:09:10 13° WNW 22:09:10 13° WNW visible
11 Oct -1.3 04:50:39 15° N 04:50:39 15° N 04:51:31 10° NNE visible
11 Oct -1.9 20:08:02 10° N 20:10:48 19° NE 20:13:35 10° E visible
11 Oct -2.9 21:45:02 10° WNW 21:48:23 59° W 21:48:23 59° W visible
12 Oct -3.1 21:23:49 10° WNW 21:27:47 71° SSW 21:29:33 32° SE visible
12 Oct -0.3 23:03:40 10° WSW 23:04:21 13° WSW 23:04:21 13° WSW visible
13 Oct -3.0 21:04:56 10° WNW 21:08:56 67° SSW 21:12:30 13° SE visible
13 Oct -0.9 22:44:59 10° WSW 22:47:26 23° SSW 22:47:26 23° SSW visible
14 Oct -2.8 20:48:14 10° WNW 20:52:15 62° SSW 20:56:20 10° SE visible
14 Oct -1.2 22:28:29 10° WSW 22:31:53 24° S 22:32:15 24° S visible
